TimeCET,TemperatureF,Dew PointF,Humidity,Sea Level PressureIn,VisibilityMPH,Wind Direction,Wind SpeedMPH,Gust SpeedMPH,PrecipitationIn,Events,Conditions,WindDirDegrees,DateUTC
12:00 AM,44.6,39.2,81,30.18,6.2,NNW,9.2,-,N/A,,Partly Cloudy,330,2012-11-11 23:00:00
5:30 AM,41.0,37.4,87,30.21,-9999.0,North,5.8,-,N/A,,Clear,360,2012-11-12 04:30:00
6:00 AM,41.0,37.4,87,30.21,-9999.0,North,5.8,-,N/A,,Clear,360,2012-11-12 05:00:00
6:30 AM,42.8,37.4,81,30.21,-9999.0,North,3.5,-,N/A,,Clear,350,2012-11-12 05:30:00
7:00 AM,41.0,37.4,87,30.24,-9999.0,NNW,1.2,-,N/A,,Clear,330,2012-11-12 06:00:00
7:30 AM,41.0,35.6,81,30.24,-9999.0,North,3.5,-,N/A,,Clear,360,2012-11-12 06:30:00
8:00 AM,41.0,35.6,81,30.27,6.2,NW,6.9,-,N/A,,Partly Cloudy,320,2012-11-12 07:00:00
8:30 AM,42.8,35.6,76,30.27,6.2,NNW,5.8,-,N/A,,Partly Cloudy,340,2012-11-12 07:30:00
9:00 AM,44.6,37.4,76,30.30,6.2,NNW,9.2,-,N/A,,Partly Cloudy,330,2012-11-12 08:00:00
9:30 AM,46.4,39.2,76,30.30,6.2,NNW,8.1,-,N/A,,Partly Cloudy,330,2012-11-12 08:30:00
10:00 AM,48.2,39.2,71,30.30,6.2,North,5.8,-,N/A,,Partly Cloudy,350,2012-11-12 09:00:00
10:30 AM,50.0,39.2,66,30.30,6.2,North,4.6,-,N/A,,Partly Cloudy,360,2012-11-12 09:30:00
1:00 PM,53.6,32.0,44,30.30,6.2,North,17.3,-,N/A,,Partly Cloudy,350,2012-11-12 12:00:00
1:30 PM,53.6,30.2,41,30.27,6.2,NNW,17.3,-,N/A,,Partly Cloudy,330,2012-11-12 12:30:00
2:00 PM,53.6,32.0,44,30.27,6.2,NNW,19.6,-,N/A,,Partly Cloudy,330,2012-11-12 13:00:00
2:30 PM,53.6,32.0,44,30.27,6.2,NNW,17.3,-,N/A,,Partly Cloudy,340,2012-11-12 13:30:00
3:00 PM,53.6,33.8,47,30.27,-9999.0,NNW,18.4,-,N/A,,Partly Cloudy,340,2012-11-12 14:00:00
3:30 PM,51.8,35.6,54,30.27,6.2,NNW,17.3,-,N/A,,Partly Cloudy,340,2012-11-12 14:30:00
4:00 PM,51.8,35.6,54,30.27,-9999.0,North,15.0,-,N/A,,Partly Cloudy,350,2012-11-12 15:00:00
4:30 PM,51.8,35.6,54,30.27,6.2,North,16.1,-,N/A,,Partly Cloudy,350,2012-11-12 15:30:00
5:00 PM,50.0,33.8,54,30.27,6.2,North,16.1,-,N/A,,Partly Cloudy,350,2012-11-12 16:00:00
5:30 PM,50.0,35.6,58,30.30,6.2,North,12.7,-,N/A,,Partly Cloudy,360,2012-11-12 16:30:00
6:00 PM,48.2,37.4,66,30.30,6.2,North,11.5,-,N/A,,Partly Cloudy,360,2012-11-12 17:00:00
6:30 PM,48.2,39.2,71,30.30,6.2,NNW,12.7,-,N/A,,Partly Cloudy,340,2012-11-12 17:30:00
7:00 PM,48.2,39.2,71,30.30,6.2,NNW,13.8,-,N/A,,Partly Cloudy,340,2012-11-12 18:00:00
7:30 PM,46.4,39.2,76,30.30,6.2,North,12.7,-,N/A,,Partly Cloudy,350,2012-11-12 18:30:00
8:00 PM,44.6,37.4,76,30.30,6.2,NNW,8.1,-,N/A,,Partly Cloudy,340,2012-11-12 19:00:00
8:30 PM,44.6,37.4,76,30.30,6.2,NNW,6.9,-,N/A,,Partly Cloudy,340,2012-11-12 19:30:00
9:00 PM,44.6,37.4,76,30.30,6.2,North,11.5,-,N/A,,Partly Cloudy,350,2012-11-12 20:00:00
9:30 PM,44.6,37.4,76,30.30,6.2,North,8.1,-,N/A,,Partly Cloudy,360,2012-11-12 20:30:00
10:00 PM,44.6,35.6,71,30.30,6.2,NNW,5.8,-,N/A,,Partly Cloudy,330,2012-11-12 21:00:00
10:30 PM,42.8,35.6,76,30.30,6.2,NW,6.9,-,N/A,,Partly Cloudy,320,2012-11-12 21:30:00
11:00 PM,42.8,33.8,70,30.30,6.2,NNW,6.9,-,N/A,,Partly Cloudy,340,2012-11-12 22:00:00
11:30 PM,42.8,33.8,70,30.30,6.2,NNW,9.2,-,N/A,,Partly Cloudy,330,2012-11-12 22:30:00